owner,sensor,date,latitude,longitude,vertical_datum,wind_speed,wind_to_direction,wind_speed_of_gust,qcFlag 
COMPS,ioos:station:USF.COMPS:FHP:1,2014-09-01T00:00:00Z,28.1530,-82.8010,10.0,2.23,101.86,2.74,'1111122,1111122,1111122' 
COMPS,ioos:station:USF.COMPS:FHP:1,2014-09-01T00:06:00Z,28.1530,-82.8010,10.0,2.29,116.01,2.94,'1111122,1111122,1111122' 
COMPS,ioos:station:USF.COMPS:FHP:1,2014-09-01T00:12:00Z,28.1530,-82.8010,10.0,2.42,103.8,2.84,'1111122,1111122,1111122' 
COMPS,ioos:station:USF.COMPS:FHP:1,2014-09-01T00:18:00Z,28.1530,-82.8010,10.0,2.15,106.82,2.84,'1111122,1111122,1111122' 
COMPS,ioos:station:USF.COMPS:FHP:1,2014-09-01T00:24:00Z,28.1530,-82.8010,10.0,2.33,86.4,2.74,'1111122,1111122,1111122' 
COMPS,ioos:station:USF.COMPS:FHP:1,2014-09-01T00:30:00Z,28.1530,-82.8010,10.0,2.57,73.36,3.13,'1111122,1111122,1111122' 
COMPS,ioos:station:USF.COMPS:FHP:1,2014-09-01T00:36:00Z,28.1530,-82.8010,10.0,2.27,76.83,2.54,'1111122,1111122,1111122' 
COMPS,ioos:station:USF.COMPS:FHP:1,2014-09-01T00:42:00Z,28.1530,-82.8010,10.0,1.4,115.32,1.96,'1111122,1111122,1111122' 
COMPS,ioos:station:USF.COMPS:FHP:1,2014-09-01T00:48:00Z,28.1530,-82.8010,10.0,1.67,132.11,2.05,'1111122,1111122,1111122' 
COMPS,ioos:station:USF.COMPS:FHP:1,2014-09-01T00:54:00Z,28.1530,-82.8010,10.0,1.8,147.7,2.15,'1111122,1111122,1111122' 
COMPS,ioos:station:USF.COMPS:FHP:1,2014-09-01T01:00:00Z,28.1530,-82.8010,10.0,2.5,172.16,2.94,'1111122,1111122,1111122' 
COMPS,ioos:station:USF.COMPS:FHP:1,2014-09-01T01:06:00Z,28.1530,-82.8010,10.0,3.09,169.67,3.82,'1111122,1111122,1111122' 
COMPS,ioos:station:USF.COMPS:FHP:1,2014-09-01T01:12:00Z,28.1530,-82.8010,10.0,2.83,170.11,3.82,'1111122,1111122,1111122' 
COMPS,ioos:station:USF.COMPS:FHP:1,2014-09-01T01:18:00Z,28.1530,-82.8010,10.0,3.13,211.06,4.99,'1111122,1111122,1111122' 
COMPS,ioos:station:USF.COMPS:FHP:1,2014-09-01T01:24:00Z,28.1530,-82.8010,10.0,4.02,224.48,5.19,'1111122,1111122,1111122' 
COMPS,ioos:station:USF.COMPS:FHP:1,2014-09-01T01:30:00Z,28.1530,-82.8010,10.0,4.7,223.53,5.58,'1111122,1111122,1111122' 
COMPS,ioos:station:USF.COMPS:FHP:1,2014-09-01T01:36:00Z,28.1530,-82.8010,10.0,5.09,218.13,6.07,'1111122,1111122,1111122' 
COMPS,ioos:station:USF.COMPS:FHP:1,2014-09-01T01:42:00Z,28.1530,-82.8010,10.0,4.48,209.52,5.29,'1111122,1111122,1111122' 
COMPS,ioos:station:USF.COMPS:FHP:1,2014-09-01T01:48:00Z,28.1530,-82.8010,10.0,3.75,202.67,4.5,'1111122,1111122,1111122' 
COMPS,ioos:station:USF.COMPS:FHP:1,2014-09-01T01:54:00Z,28.1530,-82.8010,10.0,3.66,194.44,4.8,'1111122,1111122,1111122' 
COMPS,ioos:station:USF.COMPS:FHP:1,2014-09-01T02:00:00Z,28.1530,-82.8010,10.0,3.33,205.74,4.41,'1111122,1111122,1111122' 
COMPS,ioos:station:USF.COMPS:FHP:1,2014-09-01T02:06:00Z,28.1530,-82.8010,10.0,2.38,208.49,3.43,'1111122,1111122,1111122' 
COMPS,ioos:station:USF.COMPS:FHP:1,2014-09-01T02:12:00Z,28.1530,-82.8010,10.0,1.88,219.61,2.35,'1111122,1111122,1111122' 
COMPS,ioos:station:USF.COMPS:FHP:1,2014-09-01T02:18:00Z,28.1530,-82.8010,10.0,1.63,207.13,2.25,'1111122,1111122,1111122' 
COMPS,ioos:station:USF.COMPS:FHP:1,2014-09-01T02:24:00Z,28.1530,-82.8010,10.0,1.43,184.58,1.86,'1111122,1111122,1111122' 
COMPS,ioos:station:USF.COMPS:FHP:1,2014-09-01T02:30:00Z,28.1530,-82.8010,10.0,1.15,169.47,1.96,'1111122,1111122,1111122' 
COMPS,ioos:station:USF.COMPS:FHP:1,2014-09-01T02:36:00Z,28.1530,-82.8010,10.0,0.17,168.33,0.49,'1111122,1111122,1111122' 
COMPS,ioos:station:USF.COMPS:FHP:1,2014-09-01T02:42:00Z,28.1530,-82.8010,10.0,0.66,91.14,1.56,'1111122,1111122,1111122' 
COMPS,ioos:station:USF.COMPS:FHP:1,2014-09-01T02:48:00Z,28.1530,-82.8010,10.0,2.15,81.31,2.64,'1111122,1111122,1111122' 
COMPS,ioos:station:USF.COMPS:FHP:1,2014-09-01T02:54:00Z,28.1530,-82.8010,10.0,2.38,81.43,2.84,'1111122,1111122,1111122' 
COMPS,ioos:station:USF.COMPS:FHP:1,2014-09-01T03:00:00Z,28.1530,-82.8010,10.0,1.9,83.48,2.74,'1111122,1111122,1111122' 
COMPS,ioos:station:USF.COMPS:FHP:1,2014-09-01T03:06:00Z,28.1530,-82.8010,10.0,1.89,87.91,2.54,'1111122,1111122,1111122' 
COMPS,ioos:station:USF.COMPS:FHP:1,2014-09-01T03:12:00Z,28.1530,-82.8010,10.0,2.77,77.85,3.62,'1111122,1111122,1111122' 
COMPS,ioos:station:USF.COMPS:FHP:1,2014-09-01T03:18:00Z,28.1530,-82.8010,10.0,3.3,86.17,3.92,'1111122,1111122,1111122' 
COMPS,ioos:station:USF.COMPS:FHP:1,2014-09-01T03:24:00Z,28.1530,-82.8010,10.0,2.94,86.19,3.43,'1111122,1111122,1111122' 
COMPS,ioos:station:USF.COMPS:FHP:1,2014-09-01T03:30:00Z,28.1530,-82.8010,10.0,3.07,89.14,3.43,'1111122,1111122,1111122' 
COMPS,ioos:station:USF.COMPS:FHP:1,2014-09-01T03:36:00Z,28.1530,-82.8010,10.0,3.31,82.2,3.82,'1111122,1111122,1111122' 
COMPS,ioos:station:USF.COMPS:FHP:1,2014-09-01T03:42:00Z,28.1530,-82.8010,10.0,3.04,80.16,3.43,'1111122,1111122,1111122' 
COMPS,ioos:station:USF.COMPS:FHP:1,2014-09-01T03:48:00Z,28.1530,-82.8010,10.0,2.75,80.64,3.43,'1111122,1111122,1111122' 
COMPS,ioos:station:USF.COMPS:FHP:1,2014-09-01T03:54:00Z,28.1530,-82.8010,10.0,2.79,76.85,3.33,'1111122,1111122,1111122' 
COMPS,ioos:station:USF.COMPS:FHP:1,2014-09-01T04:00:00Z,28.1530,-82.8010,10.0,2.65,70.26,3.03,'1111122,1111122,1111122' 
COMPS,ioos:station:USF.COMPS:FHP:1,2014-09-01T04:06:00Z,28.1530,-82.8010,10.0,2.42,65.02,2.84,'1111122,1111122,1111122' 
COMPS,ioos:station:USF.COMPS:FHP:1,2014-09-01T04:12:00Z,28.1530,-82.8010,10.0,2.5,71.63,2.74,'1111122,1111122,1111122' 
COMPS,ioos:station:USF.COMPS:FHP:1,2014-09-01T04:18:00Z,28.1530,-82.8010,10.0,2.26,75.19,2.54,'1111122,1111122,1111122' 
COMPS,ioos:station:USF.COMPS:FHP:1,2014-09-01T04:24:00Z,28.1530,-82.8010,10.0,1.86,86.65,2.25,'1111122,1111122,1111122' 
COMPS,ioos:station:USF.COMPS:FHP:1,2014-09-01T04:30:00Z,28.1530,-82.8010,10.0,1.93,89.56,2.25,'1111122,1111122,1111122' 
COMPS,ioos:station:USF.COMPS:FHP:1,2014-09-01T04:36:00Z,28.1530,-82.8010,10.0,1.91,97.43,2.25,'1111122,1111122,1111122' 
COMPS,ioos:station:USF.COMPS:FHP:1,2014-09-01T04:42:00Z,28.1530,-82.8010,10.0,2.12,95.79,2.45,'1111122,1111122,1111122' 
COMPS,ioos:station:USF.COMPS:FHP:1,2014-09-01T04:48:00Z,28.1530,-82.8010,10.0,2.12,105.59,2.54,'1111122,1111122,1111122' 
COMPS,ioos:station:USF.COMPS:FHP:1,2014-09-01T04:54:00Z,28.1530,-82.8010,10.0,2.79,88.44,3.43,'1111122,1111122,1111122' 
COMPS,ioos:station:USF.COMPS:FHP:1,2014-09-01T05:00:00Z,28.1530,-82.8010,10.0,3.45,78.3,3.92,'1111122,1111122,1111122' 
COMPS,ioos:station:USF.COMPS:FHP:1,2014-09-01T05:06:00Z,28.1530,-82.8010,10.0,3.02,76.29,3.52,'1111122,1111122,1111122' 
COMPS,ioos:station:USF.COMPS:FHP:1,2014-09-01T05:12:00Z,28.1530,-82.8010,10.0,2.59,71.1,3.13,'1111122,1111122,1111122' 
COMPS,ioos:station:USF.COMPS:FHP:1,2014-09-01T05:18:00Z,28.1530,-82.8010,10.0,2.77,77.02,3.33,'1111122,1111122,1111122' 
COMPS,ioos:station:USF.COMPS:FHP:1,2014-09-01T05:24:00Z,28.1530,-82.8010,10.0,2.88,78.59,3.33,'1111122,1111122,1111122' 
COMPS,ioos:station:USF.COMPS:FHP:1,2014-09-01T05:30:00Z,28.1530,-82.8010,10.0,2.67,80.92,3.13,'1111122,1111122,1111122' 
COMPS,ioos:station:USF.COMPS:FHP:1,2014-09-01T05:36:00Z,28.1530,-82.8010,10.0,2.71,88.49,3.23,'1111122,1111122,1111122' 
COMPS,ioos:station:USF.COMPS:FHP:1,2014-09-01T05:42:00Z,28.1530,-82.8010,10.0,2.97,86.94,3.52,'1111122,1111122,1111122' 
COMPS,ioos:station:USF.COMPS:FHP:1,2014-09-01T05:48:00Z,28.1530,-82.8010,10.0,2.25,82.81,2.64,'1111122,1111122,1111122' 
COMPS,ioos:station:USF.COMPS:FHP:1,2014-09-01T05:54:00Z,28.1530,-82.8010,10.0,2.07,86.8,2.54,'1111122,1111122,1111122' 
COMPS,ioos:station:USF.COMPS:FHP:1,2014-09-01T06:00:00Z,28.1530,-82.8010,10.0,2.27,89.57,2.74,'1111122,1111122,1111122' 
COMPS,ioos:station:USF.COMPS:FHP:1,2014-09-01T06:06:00Z,28.1530,-82.8010,10.0,2.79,91.05,3.23,'1111122,1111122,1111122' 
COMPS,ioos:station:USF.COMPS:FHP:1,2014-09-01T06:12:00Z,28.1530,-82.8010,10.0,2.8,87.33,3.33,'1111122,1111122,1111122' 
COMPS,ioos:station:USF.COMPS:FHP:1,2014-09-01T06:18:00Z,28.1530,-82.8010,10.0,2.73,75.4,3.33,'1111122,1111122,1111122' 
COMPS,ioos:station:USF.COMPS:FHP:1,2014-09-01T06:24:00Z,28.1530,-82.8010,10.0,2.89,75.97,3.52,'1111122,1111122,1111122' 
COMPS,ioos:station:USF.COMPS:FHP:1,2014-09-01T06:30:00Z,28.1530,-82.8010,10.0,3.45,78.58,4.01,'1111122,1111122,1111122' 
COMPS,ioos:station:USF.COMPS:FHP:1,2014-09-01T06:36:00Z,28.1530,-82.8010,10.0,3.54,88.52,4.21,'1111122,1111122,1111122' 
COMPS,ioos:station:USF.COMPS:FHP:1,2014-09-01T06:42:00Z,28.1530,-82.8010,10.0,3.39,91.85,3.72,'1111122,1111122,1111122' 
COMPS,ioos:station:USF.COMPS:FHP:1,2014-09-01T06:48:00Z,28.1530,-82.8010,10.0,3.25,81.7,3.82,'1111122,1111122,1111122' 
COMPS,ioos:station:USF.COMPS:FHP:1,2014-09-01T06:54:00Z,28.1530,-82.8010,10.0,3.21,81.33,3.72,'1111122,1111122,1111122' 
COMPS,ioos:station:USF.COMPS:FHP:1,2014-09-01T07:00:00Z,28.1530,-82.8010,10.0,2.85,86.47,3.52,'1111122,1111122,1111122' 
COMPS,ioos:station:USF.COMPS:FHP:1,2014-09-01T07:06:00Z,28.1530,-82.8010,10.0,2.44,87.45,2.84,'1111122,1111122,1111122' 
COMPS,ioos:station:USF.COMPS:FHP:1,2014-09-01T07:12:00Z,28.1530,-82.8010,10.0,2.52,85.82,2.94,'1111122,1111122,1111122' 
COMPS,ioos:station:USF.COMPS:FHP:1,2014-09-01T07:18:00Z,28.1530,-82.8010,10.0,2.83,89.45,3.43,'1111122,1111122,1111122' 
COMPS,ioos:station:USF.COMPS:FHP:1,2014-09-01T07:24:00Z,28.1530,-82.8010,10.0,2.98,90.67,3.52,'1111122,1111122,1111122' 
COMPS,ioos:station:USF.COMPS:FHP:1,2014-09-01T07:30:00Z,28.1530,-82.8010,10.0,3.08,91.28,3.62,'1111122,1111122,1111122' 
COMPS,ioos:station:USF.COMPS:FHP:1,2014-09-01T07:36:00Z,28.1530,-82.8010,10.0,3.13,87.52,3.62,'1111122,1111122,1111122' 
COMPS,ioos:station:USF.COMPS:FHP:1,2014-09-01T07:42:00Z,28.1530,-82.8010,10.0,2.99,86.39,3.52,'1111122,1111122,1111122' 
COMPS,ioos:station:USF.COMPS:FHP:1,2014-09-01T07:48:00Z,28.1530,-82.8010,10.0,2.64,85.63,3.13,'1111122,1111122,1111122' 
COMPS,ioos:station:USF.COMPS:FHP:1,2014-09-01T07:54:00Z,28.1530,-82.8010,10.0,2.73,87.15,3.23,'1111122,1111122,1111122' 
COMPS,ioos:station:USF.COMPS:FHP:1,2014-09-01T08:00:00Z,28.1530,-82.8010,10.0,3.0,93.37,3.43,'1111122,1111122,1111122' 
COMPS,ioos:station:USF.COMPS:FHP:1,2014-09-01T08:06:00Z,28.1530,-82.8010,10.0,3.0,86.95,3.33,'1111122,1111122,1111122' 
COMPS,ioos:station:USF.COMPS:FHP:1,2014-09-01T08:12:00Z,28.1530,-82.8010,10.0,2.62,87.69,3.13,'1111122,1111122,1111122' 
COMPS,ioos:station:USF.COMPS:FHP:1,2014-09-01T08:18:00Z,28.1530,-82.8010,10.0,2.71,90.19,3.13,'1111122,1111122,1111122' 
COMPS,ioos:station:USF.COMPS:FHP:1,2014-09-01T08:24:00Z,28.1530,-82.8010,10.0,2.78,96.93,3.33,'1111122,1111122,1111122' 
COMPS,ioos:station:USF.COMPS:FHP:1,2014-09-01T08:30:00Z,28.1530,-82.8010,10.0,2.64,99.86,3.23,'1111122,1111122,1111122' 
COMPS,ioos:station:USF.COMPS:FHP:1,2014-09-01T08:36:00Z,28.1530,-82.8010,10.0,2.5,95.14,2.84,'1111122,1111122,1111122' 
COMPS,ioos:station:USF.COMPS:FHP:1,2014-09-01T08:42:00Z,28.1530,-82.8010,10.0,2.56,106.87,3.23,'1111122,1111122,1111122' 
COMPS,ioos:station:USF.COMPS:FHP:1,2014-09-01T08:48:00Z,28.1530,-82.8010,10.0,3.08,107.97,3.62,'1111122,1111122,1111122' 
COMPS,ioos:station:USF.COMPS:FHP:1,2014-09-01T08:54:00Z,28.1530,-82.8010,10.0,2.92,104.44,3.62,'1111122,1111122,1111122' 
COMPS,ioos:station:USF.COMPS:FHP:1,2014-09-01T09:00:00Z,28.1530,-82.8010,10.0,2.77,100.14,3.13,'1111122,1111122,1111122' 
COMPS,ioos:station:USF.COMPS:FHP:1,2014-09-01T09:06:00Z,28.1530,-82.8010,10.0,2.64,96.79,3.03,'1111122,1111122,1111122' 
COMPS,ioos:station:USF.COMPS:FHP:1,2014-09-01T09:12:00Z,28.1530,-82.8010,10.0,2.62,103.01,3.03,'1111122,1111122,1111122' 
COMPS,ioos:station:USF.COMPS:FHP:1,2014-09-01T09:18:00Z,28.1530,-82.8010,10.0,2.47,107.06,3.03,'1111122,1111122,1111122' 
COMPS,ioos:station:USF.COMPS:FHP:1,2014-09-01T09:24:00Z,28.1530,-82.8010,10.0,2.89,112.18,3.72,'1111122,1111122,1111122' 
COMPS,ioos:station:USF.COMPS:FHP:1,2014-09-01T09:30:00Z,28.1530,-82.8010,10.0,3.07,110.9,3.62,'1111122,1111122,1111122' 
COMPS,ioos:station:USF.COMPS:FHP:1,2014-09-01T09:36:00Z,28.1530,-82.8010,10.0,2.96,108.3,3.72,'1111122,1111122,1111122' 
COMPS,ioos:station:USF.COMPS:FHP:1,2014-09-01T09:42:00Z,28.1530,-82.8010,10.0,2.7,106.65,3.33,'1111122,1111122,1111122' 
COMPS,ioos:station:USF.COMPS:FHP:1,2014-09-01T09:48:00Z,28.1530,-82.8010,10.0,2.59,101.66,3.23,'1111122,1111122,1111122' 
COMPS,ioos:station:USF.COMPS:FHP:1,2014-09-01T09:54:00Z,28.1530,-82.8010,10.0,2.74,94.68,3.43,'1111122,1111122,1111122' 
COMPS,ioos:station:USF.COMPS:FHP:1,2014-09-01T10:00:00Z,28.1530,-82.8010,10.0,2.71,88.14,3.43,'1111122,1111122,1111122' 
COMPS,ioos:station:USF.COMPS:FHP:1,2014-09-01T10:06:00Z,28.1530,-82.8010,10.0,2.92,88.65,3.52,'1111122,1111122,1111122' 
COMPS,ioos:station:USF.COMPS:FHP:1,2014-09-01T10:12:00Z,28.1530,-82.8010,10.0,2.59,95.68,3.33,'1111122,1111122,1111122' 
COMPS,ioos:station:USF.COMPS:FHP:1,2014-09-01T10:18:00Z,28.1530,-82.8010,10.0,2.37,96.02,2.94,'1111122,1111122,1111122' 
COMPS,ioos:station:USF.COMPS:FHP:1,2014-09-01T10:24:00Z,28.1530,-82.8010,10.0,2.2,108.58,2.94,'1111122,1111122,1111122' 
COMPS,ioos:station:USF.COMPS:FHP:1,2014-09-01T10:30:00Z,28.1530,-82.8010,10.0,2.06,109.64,2.64,'1111122,1111122,1111122' 
COMPS,ioos:station:USF.COMPS:FHP:1,2014-09-01T10:36:00Z,28.1530,-82.8010,10.0,2.27,118.36,3.33,'1111122,1111122,1111122' 
COMPS,ioos:station:USF.COMPS:FHP:1,2014-09-01T10:42:00Z,28.1530,-82.8010,10.0,2.62,115.75,3.13,'1111122,1111122,1111122' 
COMPS,ioos:station:USF.COMPS:FHP:1,2014-09-01T10:48:00Z,28.1530,-82.8010,10.0,2.72,111.75,3.43,'1111122,1111122,1111122' 
COMPS,ioos:station:USF.COMPS:FHP:1,2014-09-01T10:54:00Z,28.1530,-82.8010,10.0,2.64,103.64,3.03,'1111122,1111122,1111122' 
COMPS,ioos:station:USF.COMPS:FHP:1,2014-09-01T11:00:00Z,28.1530,-82.8010,10.0,3.18,103.79,3.82,'1111122,1111122,1111122' 
COMPS,ioos:station:USF.COMPS:FHP:1,2014-09-01T11:06:00Z,28.1530,-82.8010,10.0,2.79,104.71,3.33,'1111122,1111122,1111122' 
COMPS,ioos:station:USF.COMPS:FHP:1,2014-09-01T11:12:00Z,28.1530,-82.8010,10.0,2.99,106.99,3.82,'1111122,1111122,1111122' 
COMPS,ioos:station:USF.COMPS:FHP:1,2014-09-01T11:18:00Z,28.1530,-82.8010,10.0,2.99,113.29,3.52,'1111122,1111122,1111122' 
COMPS,ioos:station:USF.COMPS:FHP:1,2014-09-01T11:24:00Z,28.1530,-82.8010,10.0,2.97,116.76,3.62,'1111122,1111122,1111122' 
COMPS,ioos:station:USF.COMPS:FHP:1,2014-09-01T11:30:00Z,28.1530,-82.8010,10.0,2.92,113.85,3.62,'1111122,1111122,1111122' 
COMPS,ioos:station:USF.COMPS:FHP:1,2014-09-01T11:36:00Z,28.1530,-82.8010,10.0,2.88,115.78,3.43,'1111122,1111122,1111122' 
COMPS,ioos:station:USF.COMPS:FHP:1,2014-09-01T11:42:00Z,28.1530,-82.8010,10.0,2.61,117.48,3.33,'1111122,1111122,1111122' 
COMPS,ioos:station:USF.COMPS:FHP:1,2014-09-01T11:48:00Z,28.1530,-82.8010,10.0,2.38,115.82,3.13,'1111122,1111122,1111122' 
COMPS,ioos:station:USF.COMPS:FHP:1,2014-09-01T11:54:00Z,28.1530,-82.8010,10.0,2.04,117.58,2.74,'1111122,1111122,1111122' 
COMPS,ioos:station:USF.COMPS:FHP:1,2014-09-01T12:00:00Z,28.1530,-82.8010,10.0,2.24,114.54,3.33,'1111122,1111122,1111122' 
COMPS,ioos:station:USF.COMPS:FHP:1,2014-09-01T12:06:00Z,28.1530,-82.8010,10.0,3.07,119.28,4.01,'1111122,1111122,1111122' 
COMPS,ioos:station:USF.COMPS:FHP:1,2014-09-01T12:12:00Z,28.1530,-82.8010,10.0,3.54,122.46,4.21,'1111122,1111122,1111122' 
COMPS,ioos:station:USF.COMPS:FHP:1,2014-09-01T12:18:00Z,28.1530,-82.8010,10.0,3.46,125.05,4.41,'1111122,1111122,1111122' 
COMPS,ioos:station:USF.COMPS:FHP:1,2014-09-01T12:24:00Z,28.1530,-82.8010,10.0,3.41,125.26,4.8,'1111122,1111122,1111122' 
COMPS,ioos:station:USF.COMPS:FHP:1,2014-09-01T12:30:00Z,28.1530,-82.8010,10.0,3.07,123.23,3.82,'1111122,1111122,1111122' 
COMPS,ioos:station:USF.COMPS:FHP:1,2014-09-01T12:36:00Z,28.1530,-82.8010,10.0,3.13,124.92,3.92,'1111122,1111122,1111122' 
COMPS,ioos:station:USF.COMPS:FHP:1,2014-09-01T12:42:00Z,28.1530,-82.8010,10.0,3.49,119.09,4.31,'1111122,1111122,1111122' 
COMPS,ioos:station:USF.COMPS:FHP:1,2014-09-01T12:48:00Z,28.1530,-82.8010,10.0,3.3,122.39,4.21,'1111122,1111122,1111122' 
COMPS,ioos:station:USF.COMPS:FHP:1,2014-09-01T12:54:00Z,28.1530,-82.8010,10.0,3.52,123.14,4.5,'1111122,1111122,1111122' 
COMPS,ioos:station:USF.COMPS:FHP:1,2014-09-01T13:00:00Z,28.1530,-82.8010,10.0,3.71,122.7,4.5,'1111122,1111122,1111122' 
COMPS,ioos:station:USF.COMPS:FHP:1,2014-09-01T13:06:00Z,28.1530,-82.8010,10.0,3.58,124.05,4.7,'1111122,1111122,1111122' 
COMPS,ioos:station:USF.COMPS:FHP:1,2014-09-01T13:12:00Z,28.1530,-82.8010,10.0,3.38,124.09,4.41,'1111122,1111122,1111122' 
COMPS,ioos:station:USF.COMPS:FHP:1,2014-09-01T13:18:00Z,28.1530,-82.8010,10.0,3.75,121.6,4.6,'1111122,1111122,1111122' 
COMPS,ioos:station:USF.COMPS:FHP:1,2014-09-01T13:24:00Z,28.1530,-82.8010,10.0,3.98,118.17,4.8,'1111122,1111122,1111122' 
COMPS,ioos:station:USF.COMPS:FHP:1,2014-09-01T13:30:00Z,28.1530,-82.8010,10.0,4.6,120.64,5.39,'1111122,1111122,1111122' 
COMPS,ioos:station:USF.COMPS:FHP:1,2014-09-01T13:36:00Z,28.1530,-82.8010,10.0,3.93,128.66,4.7,'1111122,1111122,1111122' 
COMPS,ioos:station:USF.COMPS:FHP:1,2014-09-01T13:42:00Z,28.1530,-82.8010,10.0,3.85,135.44,4.41,'1111122,1111122,1111122' 
COMPS,ioos:station:USF.COMPS:FHP:1,2014-09-01T13:48:00Z,28.1530,-82.8010,10.0,4.33,128.42,5.58,'1111122,1111122,1111122' 
COMPS,ioos:station:USF.COMPS:FHP:1,2014-09-01T13:54:00Z,28.1530,-82.8010,10.0,4.01,134.58,5.78,'1111122,1111122,1111122' 
COMPS,ioos:station:USF.COMPS:FHP:1,2014-09-01T14:00:00Z,28.1530,-82.8010,10.0,3.85,139.97,4.6,'1111122,1111122,1111122' 
COMPS,ioos:station:USF.COMPS:FHP:1,2014-09-01T14:06:00Z,28.1530,-82.8010,10.0,4.15,136.52,4.7,'1111122,1111122,1111122' 
COMPS,ioos:station:USF.COMPS:FHP:1,2014-09-01T14:12:00Z,28.1530,-82.8010,10.0,3.41,131.28,4.01,'1111122,1111122,1111122' 
COMPS,ioos:station:USF.COMPS:FHP:1,2014-09-01T14:18:00Z,28.1530,-82.8010,10.0,3.33,134.56,4.11,'1111122,1111122,1111122' 
COMPS,ioos:station:USF.COMPS:FHP:1,2014-09-01T14:24:00Z,28.1530,-82.8010,10.0,3.4,134.06,4.21,'1111122,1111122,1111122' 
COMPS,ioos:station:USF.COMPS:FHP:1,2014-09-01T14:30:00Z,28.1530,-82.8010,10.0,3.45,130.13,4.41,'1111122,1111122,1111122' 
COMPS,ioos:station:USF.COMPS:FHP:1,2014-09-01T14:36:00Z,28.1530,-82.8010,10.0,3.5,130.15,4.21,'1111122,1111122,1111122' 
COMPS,ioos:station:USF.COMPS:FHP:1,2014-09-01T14:42:00Z,28.1530,-82.8010,10.0,3.43,131.42,4.5,'1111122,1111122,1111122' 
COMPS,ioos:station:USF.COMPS:FHP:1,2014-09-01T14:48:00Z,28.1530,-82.8010,10.0,3.29,127.11,4.41,'1111122,1111122,1111122' 
COMPS,ioos:station:USF.COMPS:FHP:1,2014-09-01T14:54:00Z,28.1530,-82.8010,10.0,3.37,133.72,4.31,'1111122,1111122,1111122' 
COMPS,ioos:station:USF.COMPS:FHP:1,2014-09-01T15:00:00Z,28.1530,-82.8010,10.0,3.62,142.83,4.31,'1111122,1111122,1111122' 
COMPS,ioos:station:USF.COMPS:FHP:1,2014-09-01T15:06:00Z,28.1530,-82.8010,10.0,3.7,149.15,4.9,'1111122,1111122,1111122' 
COMPS,ioos:station:USF.COMPS:FHP:1,2014-09-01T15:12:00Z,28.1530,-82.8010,10.0,3.23,144.62,4.9,'1111122,1111122,1111122' 
COMPS,ioos:station:USF.COMPS:FHP:1,2014-09-01T15:18:00Z,28.1530,-82.8010,10.0,3.23,154.62,4.11,'1111122,1111122,1111122' 
COMPS,ioos:station:USF.COMPS:FHP:1,2014-09-01T15:24:00Z,28.1530,-82.8010,10.0,3.34,137.65,4.41,'1111122,1111122,1111122' 
COMPS,ioos:station:USF.COMPS:FHP:1,2014-09-01T15:30:00Z,28.1530,-82.8010,10.0,2.75,142.38,3.72,'1111122,1111122,1111122' 
COMPS,ioos:station:USF.COMPS:FHP:1,2014-09-01T15:36:00Z,28.1530,-82.8010,10.0,2.57,146.41,4.21,'1111122,1111122,1111122' 
COMPS,ioos:station:USF.COMPS:FHP:1,2014-09-01T15:42:00Z,28.1530,-82.8010,10.0,2.8,122.52,4.01,'1111122,1111122,1111122' 
COMPS,ioos:station:USF.COMPS:FHP:1,2014-09-01T15:48:00Z,28.1530,-82.8010,10.0,3.36,132.9,4.5,'1111122,1111122,1111122' 
COMPS,ioos:station:USF.COMPS:FHP:1,2014-09-01T15:54:00Z,28.1530,-82.8010,10.0,3.07,150.81,4.99,'1111122,1111122,1111122' 
COMPS,ioos:station:USF.COMPS:FHP:1,2014-09-01T16:00:00Z,28.1530,-82.8010,10.0,3.6,159.34,5.09,'1111122,1111122,1111122' 
COMPS,ioos:station:USF.COMPS:FHP:1,2014-09-01T16:06:00Z,28.1530,-82.8010,10.0,2.68,104.46,4.31,'1111122,1111122,1111122' 
COMPS,ioos:station:USF.COMPS:FHP:1,2014-09-01T16:12:00Z,28.1530,-82.8010,10.0,2.57,135.41,3.82,'1111122,1111122,1111122' 
COMPS,ioos:station:USF.COMPS:FHP:1,2014-09-01T16:18:00Z,28.1530,-82.8010,10.0,1.6,134.07,2.05,'1111122,1111122,1111122' 
COMPS,ioos:station:USF.COMPS:FHP:1,2014-09-01T16:24:00Z,28.1530,-82.8010,10.0,0.84,156.41,1.56,'1111122,1111122,1111122' 
COMPS,ioos:station:USF.COMPS:FHP:1,2014-09-01T16:30:00Z,28.1530,-82.8010,10.0,2.05,141.73,3.33,'1111122,1111122,1111122' 
COMPS,ioos:station:USF.COMPS:FHP:1,2014-09-01T16:36:00Z,28.1530,-82.8010,10.0,3.17,131.27,4.5,'1111122,1111122,1111122' 
COMPS,ioos:station:USF.COMPS:FHP:1,2014-09-01T16:42:00Z,28.1530,-82.8010,10.0,1.23,157.62,2.64,'1111122,1111122,1111122' 
COMPS,ioos:station:USF.COMPS:FHP:1,2014-09-01T16:48:00Z,28.1530,-82.8010,10.0,0.93,175.25,3.43,'1111122,1111122,1111122' 
COMPS,ioos:station:USF.COMPS:FHP:1,2014-09-01T16:54:00Z,28.1530,-82.8010,10.0,2.49,236.06,3.33,'1111122,1111122,1111122' 
COMPS,ioos:station:USF.COMPS:FHP:1,2014-09-01T17:00:00Z,28.1530,-82.8010,10.0,2.84,234.12,3.52,'1111122,1111122,1111122' 
COMPS,ioos:station:USF.COMPS:FHP:1,2014-09-01T17:06:00Z,28.1530,-82.8010,10.0,3.09,252.34,3.72,'1111122,1111122,1111122' 
COMPS,ioos:station:USF.COMPS:FHP:1,2014-09-01T17:12:00Z,28.1530,-82.8010,10.0,3.08,253.87,3.43,'1111122,1111122,1111122' 
COMPS,ioos:station:USF.COMPS:FHP:1,2014-09-01T17:18:00Z,28.1530,-82.8010,10.0,3.15,248.39,3.72,'1111122,1111122,1111122' 
COMPS,ioos:station:USF.COMPS:FHP:1,2014-09-01T17:24:00Z,28.1530,-82.8010,10.0,3.28,246.95,4.11,'1111122,1111122,1111122' 
COMPS,ioos:station:USF.COMPS:FHP:1,2014-09-01T17:30:00Z,28.1530,-82.8010,10.0,3.71,247.62,4.01,'1111122,1111122,1111122' 
COMPS,ioos:station:USF.COMPS:FHP:1,2014-09-01T17:36:00Z,28.1530,-82.8010,10.0,3.45,243.57,4.21,'1111122,1111122,1111122' 
COMPS,ioos:station:USF.COMPS:FHP:1,2014-09-01T17:42:00Z,28.1530,-82.8010,10.0,4.03,241.84,4.5,'1111122,1111122,1111122' 
COMPS,ioos:station:USF.COMPS:FHP:1,2014-09-01T17:48:00Z,28.1530,-82.8010,10.0,3.8,248.04,4.7,'1111122,1111122,1111122' 
COMPS,ioos:station:USF.COMPS:FHP:1,2014-09-01T17:54:00Z,28.1530,-82.8010,10.0,3.09,258.39,3.52,'1111122,1111122,1111122' 
COMPS,ioos:station:USF.COMPS:FHP:1,2014-09-01T18:00:00Z,28.1530,-82.8010,10.0,3.75,261.96,4.9,'1111122,1111122,1111122' 
COMPS,ioos:station:USF.COMPS:FHP:1,2014-09-01T18:06:00Z,28.1530,-82.8010,10.0,4.92,275.98,5.48,'1111122,1111122,1111122' 
COMPS,ioos:station:USF.COMPS:FHP:1,2014-09-01T18:12:00Z,28.1530,-82.8010,10.0,4.73,284.98,5.58,'1111122,1111122,1111122' 
COMPS,ioos:station:USF.COMPS:FHP:1,2014-09-01T18:18:00Z,28.1530,-82.8010,10.0,4.15,286.42,4.99,'1111122,1111122,1111122' 
COMPS,ioos:station:USF.COMPS:FHP:1,2014-09-01T18:24:00Z,28.1530,-82.8010,10.0,4.07,281.93,4.9,'1111122,1111122,1111122' 
COMPS,ioos:station:USF.COMPS:FHP:1,2014-09-01T18:30:00Z,28.1530,-82.8010,10.0,4.01,280.8,4.7,'1111122,1111122,1111122' 
COMPS,ioos:station:USF.COMPS:FHP:1,2014-09-01T18:36:00Z,28.1530,-82.8010,10.0,3.93,292.03,4.6,'1111122,1111122,1111122' 
COMPS,ioos:station:USF.COMPS:FHP:1,2014-09-01T18:42:00Z,28.1530,-82.8010,10.0,3.67,286.42,4.41,'1111122,1111122,1111122' 
COMPS,ioos:station:USF.COMPS:FHP:1,2014-09-01T18:48:00Z,28.1530,-82.8010,10.0,3.88,283.75,4.8,'1111122,1111122,1111122' 
COMPS,ioos:station:USF.COMPS:FHP:1,2014-09-01T18:54:00Z,28.1530,-82.8010,10.0,4.1,285.26,5.19,'1111122,1111122,1111122' 
COMPS,ioos:station:USF.COMPS:FHP:1,2014-09-01T19:00:00Z,28.1530,-82.8010,10.0,4.2,286.23,5.19,'1111122,1111122,1111122' 
COMPS,ioos:station:USF.COMPS:FHP:1,2014-09-01T19:06:00Z,28.1530,-82.8010,10.0,3.88,296.67,4.8,'1111122,1111122,1111122' 
COMPS,ioos:station:USF.COMPS:FHP:1,2014-09-01T19:12:00Z,28.1530,-82.8010,10.0,3.84,294.13,4.6,'1111122,1111122,1111122' 
COMPS,ioos:station:USF.COMPS:FHP:1,2014-09-01T19:18:00Z,28.1530,-82.8010,10.0,3.7,289.61,5.48,'1111122,1111122,1111122' 
COMPS,ioos:station:USF.COMPS:FHP:1,2014-09-01T19:24:00Z,28.1530,-82.8010,10.0,4.47,291.64,5.68,'1111122,1111122,1111122' 
COMPS,ioos:station:USF.COMPS:FHP:1,2014-09-01T19:30:00Z,28.1530,-82.8010,10.0,4.51,289.36,5.58,'1111122,1111122,1111122' 